QPF
0.00 0.00 0.00 0.01 0.02 0.01 0.00 0.00 0.01 0.01 0.01 0.02 0.02 0.01 0.01 0.02 0.02 0.01 0.01 0.01 0.01 0.01 0.02 0.01 0.02 0.03 0.05 0.07 0.08 0.08 0.08 0.07 0.08 0.06 0.07 0.06 0.04 0.05 0.09 0.07 0.04 0.03 0.03 0.03
0.00 0.00 0.00 0.00 0.00 0.00 0.00 0.00 0.00 0.01 0.01 0.01 0.02 0.02 0.02 0.02 0.02 0.02 0.03 0.02 0.01 0.01 0.01 0.01 0.01 0.02 0.03 0.06 0.08 0.08 0.06 0.04 0.04 0.05 0.04 0.05 0.04 0.03 0.04 0.06 0.04 0.03 0.03 0.03
0.00 0.00 0.00 0.00 0.00 0.00 0.00 0.00 0.00 0.00 0.01 0.01 0.02 0.03 0.05 0.05 0.04 0.03 0.03 0.02 0.02 0.01 0.01 0.01 0.01 0.02 0.03 0.03 0.05 0.06 0.06 0.04 0.04 0.03 0.03 0.03 0.03 0.03 0.03 0.04 0.03 0.02 0.02 0.03
0.00 0.00 0.00 0.00 0.00 0.00 0.00 0.00 0.00 0.00 0.01 0.03 0.04 0.08 0.13 0.09 0.05 0.05 0.04 0.02 0.02 0.02 0.02 0.02 0.02 0.03 0.03 0.03 0.02 0.02 0.03 0.04 0.04 0.04 0.04 0.04 0.04 0.03 0.04 0.03 0.02 0.01 0.02 0.02
0.00 0.00 0.01 0.00 0.00 0.00 0.00 0.00 0.00 0.00 0.01 0.02 0.04 0.07 0.10 0.09 0.07 0.07 0.06 0.04 0.03 0.03 0.05 0.05 0.04 0.05 0.07 0.06 0.05 0.04 0.03 0.04 0.05 0.05 0.05 0.04 0.04 0.03 0.02 0.01 0.01 0.01 0.01 0.01
0.00 0.00 0.00 0.00 0.00 0.00 0.00 0.00 0.01 0.01 0.02 0.03 0.03 0.04 0.05 0.05 0.06 0.06 0.05 0.04 0.03 0.04 0.04 0.04 0.04 0.06 0.11 0.12 0.07 0.05 0.04 0.04 0.04 0.04 0.04 0.05 0.04 0.03 0.02 0.01 0.01 0.01 0.01 0.01
0.00 0.00 0.00 0.00 0.00 0.00 0.00 0.00 0.01 0.02 0.02 0.03 0.02 0.03 0.04 0.04 0.06 0.05 0.06 0.07 0.03 0.03 0.03 0.03 0.03 0.05 0.05 0.08 0.06 0.04 0.03 0.02 0.03 0.03 0.03 0.04 0.04 0.04 0.03 0.03 0.02 0.01 0.01 0.01
0.00 0.00 0.00 0.00 0.00 0.00 0.00 0.01 0.02 0.03 0.02 0.02 0.03 0.04 0.05 0.05 0.05 0.05 0.05 0.05 0.03 0.03 0.03 0.04 0.05 0.04 0.04 0.09 0.10 0.06 0.04 0.04 0.04 0.05 0.05 0.05 0.04 0.03 0.04 0.04 0.04 0.02 0.01 0.01
0.01 0.01 0.00 0.00 0.00 0.00 0.00 0.01 0.01 0.02 0.03 0.04 0.05 0.05 0.06 0.05 0.05 0.06 0.05 0.05 0.05 0.05 0.06 0.05 0.04 0.03 0.02 0.03 0.04 0.04 0.04 0.04 0.04 0.06 0.06 0.07 0.06 0.05 0.04 0.03 0.03 0.02 0.02 0.01
0.01 0.01 0.00 0.00 0.00 0.00 0.01 0.01 0.01 0.02 0.03 0.04 0.05 0.05 0.04 0.04 0.05 0.05 0.03 0.02 0.04 0.06 0.04 0.03 0.03 0.02 0.01 0.01 0.02 0.03 0.04 0.04 0.04 0.04 0.05 0.05 0.06 0.06 0.06 0.05 0.04 0.03 0.03 0.02
0.01 0.01 0.01 0.01 0.01 0.01 0.00 0.01 0.01 0.02 0.03 0.04 0.05 0.04 0.03 0.04 0.05 0.04 0.03 0.02 0.02 0.03 0.03 0.04 0.04 0.02 0.01 0.01 0.01 0.02 0.03 0.03 0.03 0.03 0.04 0.04 0.05 0.05 0.06 0.07 0.06 0.05 0.06 0.05
0.00 0.00 0.01 0.00 0.01 0.00 0.00 0.01 0.01 0.03 0.04 0.05 0.06 0.06 0.05 0.04 0.05 0.05 0.04 0.02 0.02 0.03 0.04 0.03 0.02 0.02 0.02 0.01 0.01 0.01 0.02 0.02 0.03 0.04 0.05 0.05 0.05 0.05 0.06 0.09 0.10 0.11 0.10 0.11
0.01 0.01 0.01 0.01 0.01 0.01 0.01 0.01 0.01 0.01 0.03 0.04 0.06 0.06 0.06 0.05 0.07 0.08 0.07 0.03 0.02 0.03 0.03 0.04 0.04 0.04 0.03 0.02 0.02 0.03 0.03 0.03 0.04 0.05 0.06 0.06 0.05 0.05 0.06 0.06 0.09 0.12 0.13 0.12
0.01 0.01 0.01 0.02 0.01 0.02 0.01 0.01 0.01 0.02 0.03 0.03 0.04 0.04 0.07 0.12 0.09 0.07 0.08 0.05 0.04 0.05 0.05 0.06 0.08 0.07 0.07 0.07 0.05 0.05 0.07 0.06 0.05 0.05 0.06 0.08 0.10 0.10 0.10 0.11 0.09 0.10 0.11 0.10
0.01 0.01 0.01 0.01 0.01 0.01 0.01 0.01 0.01 0.01 0.02 0.02 0.02 0.03 0.06 0.09 0.07 0.05 0.07 0.07 0.05 0.06 0.06 0.06 0.06 0.06 0.07 0.08 0.08 0.07 0.07 0.08 0.07 0.06 0.07 0.09 0.13 0.16 0.13 0.13 0.12 0.11 0.11 0.10
0.01 0.01 0.01 0.01 0.01 0.01 0.01 0.02 0.03 0.02 0.01 0.02 0.03 0.05 0.05 0.05 0.07 0.05 0.06 0.08 0.05 0.04 0.04 0.04 0.04 0.04 0.05 0.07 0.06 0.06 0.07 0.07 0.06 0.06 0.06 0.06 0.06 0.06 0.05 0.06 0.07 0.07 0.08 0.08
0.01 0.02 0.01 0.01 0.01 0.01 0.02 0.03 0.04 0.02 0.01 0.03 0.04 0.04 0.03 0.02 0.04 0.06 0.06 0.11 0.14 0.09 0.06 0.05 0.05 0.05 0.05 0.06 0.06 0.07 0.07 0.06 0.04 0.04 0.04 0.04 0.04 0.03 0.03 0.03 0.03 0.03 0.04 0.05
0.01 0.03 0.02 0.02 0.03 0.03 0.03 0.03 0.04 0.04 0.05 0.04 0.03 0.03 0.04 0.03 0.03 0.05 0.07 0.13 0.18 0.16 0.10 0.08 0.06 0.06 0.05 0.05 0.04 0.05 0.07 0.07 0.05 0.04 0.04 0.03 0.03 0.03 0.02 0.02 0.01 0.02 0.02 0.03
0.01 0.03 0.03 0.03 0.03 0.04 0.04 0.04 0.04 0.05 0.09 0.05 0.03 0.03 0.04 0.04 0.03 0.04 0.05 0.07 0.11 0.10 0.08 0.08 0.08 0.07 0.06 0.05 0.05 0.05 0.05 0.06 0.06 0.04 0.03 0.03 0.03 0.02 0.01 0.01 0.01 0.01 0.02 0.02
0.02 0.03 0.03 0.02 0.02 0.03 0.03 0.03 0.03 0.03 0.04 0.05 0.05 0.06 0.06 0.06 0.05 0.04 0.03 0.05 0.05 0.06 0.06 0.06 0.06 0.06 0.06 0.05 0.05 0.06 0.06 0.05 0.05 0.04 0.03 0.03 0.03 0.02 0.02 0.01 0.01 0.01 0.02 0.03
0.02 0.03 0.03 0.02 0.02 0.02 0.02 0.03 0.04 0.05 0.04 0.05 0.06 0.08 0.06 0.06 0.05 0.04 0.03 0.03 0.04 0.05 0.05 0.05 0.07 0.06 0.05 0.05 0.06 0.07 0.07 0.06 0.05 0.05 0.03 0.03 0.03 0.02 0.02 0.02 0.02 0.03 0.04 0.04
0.03 0.04 0.03 0.02 0.02 0.02 0.02 0.03 0.06 0.06 0.04 0.06 0.08 0.08 0.06 0.03 0.04 0.03 0.02 0.03 0.03 0.02 0.03 0.04 0.07 0.08 0.09 0.08 0.07 0.07 0.07 0.07 0.07 0.07 0.04 0.02 0.02 0.02 0.03 0.03 0.04 0.04 0.05 0.05
0.03 0.04 0.04 0.03 0.04 0.03 0.04 0.04 0.05 0.06 0.05 0.06 0.08 0.10 0.09 0.04 0.03 0.04 0.04 0.03 0.02 0.02 0.02 0.03 0.04 0.06 0.07 0.07 0.07 0.08 0.07 0.08 0.08 0.07 0.05 0.03 0.02 0.02 0.03 0.04 0.03 0.03 0.03 0.03
0.03 0.03 0.03 0.03 0.04 0.04 0.05 0.05 0.05 0.06 0.06 0.06 0.07 0.08 0.09 0.08 0.04 0.03 0.04 0.03 0.02 0.02 0.02 0.02 0.02 0.03 0.04 0.04 0.06 0.07 0.08 0.08 0.06 0.04 0.04 0.03 0.03 0.03 0.03 0.03 0.03 0.02 0.02 0.03
0.03 0.02 0.03 0.03 0.03 0.03 0.04 0.05 0.05 0.06 0.06 0.06 0.06 0.06 0.09 0.08 0.05 0.03 0.03 0.04 0.03 0.02 0.02 0.02 0.03 0.03 0.03 0.03 0.04 0.05 0.07 0.08 0.07 0.05 0.04 0.03 0.03 0.03 0.03 0.04 0.04 0.04 0.03 0.03
0.05 0.03 0.02 0.02 0.02 0.02 0.03 0.04 0.04 0.06 0.06 0.07 0.05 0.06 0.07 0.05 0.03 0.04 0.03 0.03 0.03 0.03 0.02 0.03 0.03 0.03 0.03 0.03 0.03 0.04 0.07 0.08 0.07 0.07 0.06 0.06 0.05 0.04 0.03 0.03 0.04 0.05 0.05 0.05
MSLP
1008.93 1009.56 1009.98 1010.18 1010.21 1010.12 1009.97 1009.81 1009.69 1009.60 1009.54 1009.47 1009.36 1009.18 1008.89 1008.48 1007.97 1007.35 1006.64 1005.86 1005.02 1004.15 1003.26 1002.40 1001.59 1000.89 1000.33 999.96 999.80 999.87 1000.17 1000.66 1001.29 1002.02 1002.78 1003.54 1004.25 1004.89 1005.46 1005.97 1006.45 1006.90 1007.36 1007.83
1009.36 1009.86 1010.14 1010.24 1010.19 1010.07 1009.95 1009.88 1009.88 1009.93 1010.01 1010.07 1010.06 1009.95 1009.72 1009.35 1008.86 1008.27 1007.59 1006.84 1006.03 1005.16 1004.24 1003.30 1002.37 1001.50 1000.74 1000.15 999.77 999.64 999.79 1000.17 1000.75 1001.46 1002.25 1003.04 1003.80 1004.48 1005.08 1005.60 1006.08 1006.53 1006.99 1007.47
1009.63 1010.01 1010.18 1010.19 1010.12 1010.02 1009.97 1010.01 1010.14 1010.33 1010.53 1010.69 1010.74 1010.67 1010.44 1010.08 1009.60 1009.03 1008.38 1007.68 1006.92 1006.10 1005.20 1004.24 1003.25 1002.26 1001.33 1000.54 999.96 999.62 999.58 999.81 1000.28 1000.93 1001.69 1002.49 1003.27 1003.98 1004.60 1005.16 1005.65 1006.12 1006.59 1007.08
1009.76 1010.02 1010.12 1010.10 1010.04 1010.01 1010.08 1010.25 1010.52 1010.84 1011.13 1011.35 1011.42 1011.33 1011.07 1010.66 1010.15 1009.57 1008.95 1008.30 1007.61 1006.86 1006.03 1005.11 1004.11 1003.06 1002.03 1001.09 1000.32 999.78 999.54 999.58 999.90 1000.43 1001.11 1001.87 1002.64 1003.36 1004.01 1004.60 1005.14 1005.64 1006.14 1006.65
1009.82 1009.98 1010.03 1010.01 1010.01 1010.09 1010.30 1010.62 1011.03 1011.45 1011.81 1012.04 1012.09 1011.94 1011.60 1011.11 1010.53 1009.91 1009.29 1008.68 1008.07 1007.41 1006.68 1005.84 1004.89 1003.84 1002.77 1001.73 1000.81 1000.10 999.65 999.49 999.62 999.99 1000.54 1001.21 1001.92 1002.64 1003.31 1003.94 1004.52 1005.08 1005.62 1006.17
1009.89 1009.98 1009.99 1010.01 1010.10 1010.30 1010.65 1011.11 1011.64 1012.14 1012.54 1012.75 1012.74 1012.49 1012.03 1011.43 1010.76 1010.08 1009.44 1008.86 1008.31 1007.75 1007.14 1006.41 1005.55 1004.57 1003.51 1002.42 1001.40 1000.54 999.91 999.55 999.46 999.63 1000.02 1000.55 1001.19 1001.86 1002.53 1003.19 1003.82 1004.44 1005.04 1005.64
1010.08 1010.09 1010.10 1010.16 1010.33 1010.65 1011.12 1011.69 1012.30 1012.85 1013.24 1013.41 1013.31 1012.95 1012.38 1011.66 1010.89 1010.14 1009.47 1008.90 1008.41 1007.94 1007.44 1006.84 1006.11 1005.22 1004.20 1003.13 1002.06 1001.08 1000.29 999.74 999.44 999.40 999.59 999.98 1000.49 1001.10 1001.75 1002.42 1003.10 1003.77 1004.43 1005.08
1010.42 1010.39 1010.40 1010.49 1010.73 1011.12 1011.66 1012.30 1012.94 1013.48 1013.84 1013.95 1013.76 1013.30 1012.62 1011.80 1010.95 1010.15 1009.45 1008.89 1008.43 1008.04 1007.64 1007.16 1006.55 1005.77 1004.84 1003.80 1002.72 1001.68 1000.77 1000.05 999.57 999.33 999.33 999.54 999.92 1000.43 1001.04 1001.71 1002.41 1003.12 1003.84 1004.53
1010.93 1010.87 1010.87 1010.98 1011.24 1011.67 1012.22 1012.85 1013.46 1013.96 1014.26 1014.29 1014.03 1013.49 1012.75 1011.87 1010.98 1010.15 1009.44 1008.88 1008.46 1008.11 1007.78 1007.39 1006.88 1006.20 1005.36 1004.39 1003.34 1002.28 1001.30 1000.47 999.83 999.42 999.24 999.28 999.53 999.94 1000.48 1001.11 1001.81 1002.54 1003.28 1004.01
1011.53 1011.46 1011.46 1011.57 1011.82 1012.21 1012.71 1013.27 1013.80 1014.20 1014.41 1014.37 1014.06 1013.50 1012.74 1011.87 1010.99 1010.17 1009.48 1008.93 1008.51 1008.19 1007.89 1007.55 1007.10 1006.50 1005.74 1004.84 1003.85 1002.82 1001.82 1000.93 1000.20 999.66 999.34 999.24 999.35 999.65 1000.10 1000.68 1001.34 1002.06 1002.79 1003.52
1012.11 1012.05 1012.05 1012.13 1012.33 1012.64 1013.04 1013.47 1013.87 1014.15 1014.27 1014.16 1013.84 1013.29 1012.59 1011.79 1010.98 1010.22 1009.57 1009.04 1008.63 1008.29 1007.98 1007.64 1007.21 1006.65 1005.96 1005.13 1004.21 1003.24 1002.28 1001.39 1000.63 1000.02 999.61 999.40 999.39 999.57 999.93 1000.42 1001.01 1001.67 1002.36 1003.05
1012.54 1012.51 1012.50 1012.56 1012.69 1012.89 1013.14 1013.41 1013.65 1013.80 1013.82 1013.67 1013.36 1012.89 1012.29 1011.63 1010.94 1010.29 1009.71 1009.20 1008.78 1008.41 1008.05 1007.66 1007.21 1006.65 1005.99 1005.23 1004.40 1003.51 1002.63 1001.80 1001.06 1000.44 999.99 999.71 999.60 999.68 999.93 1000.31 1000.80 1001.37 1001.98 1002.60
1012.71 1012.72 1012.73 1012.75 1012.80 1012.88 1012.97 1013.07 1013.14 1013.16 1013.09 1012.93 1012.67 1012.31 1011.86 1011.37 1010.85 1010.34 1009.85 1009.38 1008.95 1008.52 1008.09 1007.62 1007.11 1006.53 1005.88 1005.18 1004.42 1003.64 1002.87 1002.13 1001.46 1000.89 1000.43 1000.11 999.94 999.93 1000.06 1000.32 1000.69 1001.14 1001.64 1002.16
1012.59 1012.64 1012.66 1012.65 1012.63 1012.58 1012.53 1012.46 1012.38 1012.28 1012.15 1012.00 1011.80 1011.58 1011.31 1011.02 1010.69 1010.33 1009.95 1009.53 1009.09 1008.61 1008.09 1007.54 1006.95 1006.33 1005.68 1005.01 1004.34 1003.67 1003.02 1002.40 1001.83 1001.32 1000.90 1000.58 1000.36 1000.27 1000.29 1000.43 1000.66 1000.97 1001.34 1001.74
1012.22 1012.29 1012.31 1012.28 1012.18 1012.03 1011.85 1011.64 1011.44 1011.24 1011.08 1010.94 1010.83 1010.75 1010.67 1010.57 1010.43 1010.24 1009.97 1009.62 1009.18 1008.66 1008.07 1007.43 1006.77 1006.10 1005.44 1004.81 1004.21 1003.65 1003.12 1002.62 1002.16 1001.75 1001.38 1001.06 1000.82 1000.66 1000.59 1000.61 1000.71 1000.88 1001.11 1001.38
1011.70 1011.77 1011.77 1011.70 1011.54 1011.31 1011.02 1010.70 1010.40 1010.14 1009.95 1009.84 1009.82 1009.87 1009.95 1010.04 1010.08 1010.05 1009.89 1009.61 1009.19 1008.65 1008.02 1007.32 1006.61 1005.91 1005.25 1004.65 1004.12 1003.65 1003.23 1002.85 1002.49 1002.16 1001.84 1001.55 1001.30 1001.09 1000.95 1000.86 1000.85 1000.89 1000.99 1001.14
1011.19 1011.22 1011.17 1011.04 1010.82 1010.51 1010.13 1009.74 1009.37 1009.06 1008.86 1008.79 1008.84 1008.99 1009.21 1009.45 1009.64 1009.73 1009.69 1009.48 1009.11 1008.58 1007.94 1007.23 1006.50 1005.79 1005.15 1004.59 1004.12 1003.73 1003.40 1003.11 1002.84 1002.58 1002.31 1002.05 1001.79 1001.56 1001.36 1001.20 1001.09 1001.03 1001.03 1001.07
1010.85 1010.78 1010.65 1010.44 1010.14 1009.76 1009.32 1008.86 1008.45 1008.11 1007.91 1007.85 1007.95 1008.17 1008.48 1008.82 1009.11 1009.31 1009.35 1009.23 1008.91 1008.43 1007.83 1007.15 1006.45 1005.78 1005.17 1004.66 1004.24 1003.91 1003.64 1003.42 1003.21 1003.00 1002.78 1002.54 1002.29 1002.05 1001.82 1001.62 1001.46 1001.33 1001.25 1001.20
1010.76 1010.56 1010.31 1010.00 1009.61 1009.16 1008.66 1008.16 1007.71 1007.36 1007.15 1007.09 1007.20 1007.45 1007.80 1008.18 1008.53 1008.79 1008.91 1008.85 1008.61 1008.21 1007.68 1007.07 1006.44 1005.83 1005.29 1004.83 1004.46 1004.17 1003.95 1003.76 1003.59 1003.41 1003.22 1003.00 1002.78 1002.55 1002.32 1002.11 1001.93 1001.77 1001.63 1001.53
1010.96 1010.59 1010.20 1009.77 1009.28 1008.75 1008.20 1007.66 1007.19 1006.82 1006.59 1006.53 1006.62 1006.86 1007.20 1007.58 1007.94 1008.22 1008.37 1008.37 1008.21 1007.89 1007.46 1006.96 1006.42 1005.91 1005.44 1005.05 1004.73 1004.48 1004.28 1004.11 1003.95 1003.78 1003.60 1003.41 1003.21 1003.01 1002.81 1002.62 1002.44 1002.27 1002.12 1001.98
1011.36 1010.83 1010.29 1009.72 1009.12 1008.51 1007.91 1007.35 1006.86 1006.48 1006.24 1006.15 1006.21 1006.40 1006.69 1007.02 1007.35 1007.61 1007.78 1007.82 1007.72 1007.50 1007.18 1006.79 1006.37 1005.96 1005.59 1005.26 1004.98 1004.75 1004.56 1004.39 1004.23 1004.07 1003.90 1003.73 1003.56 1003.39 1003.23 1003.07 1002.92 1002.77 1002.61 1002.45
1011.84 1011.15 1010.45 1009.75 1009.06 1008.38 1007.74 1007.16 1006.66 1006.28 1006.02 1005.90 1005.92 1006.05 1006.27 1006.53 1006.79 1007.02 1007.17 1007.23 1007.18 1007.05 1006.83 1006.56 1006.26 1005.96 1005.67 1005.40 1005.17 1004.96 1004.77 1004.59 1004.41 1004.25 1004.08 1003.93 1003.78 1003.65 1003.53 1003.41 1003.29 1003.16 1003.00 1002.82
1012.21 1011.39 1010.56 1009.75 1008.96 1008.22 1007.55 1006.96 1006.48 1006.10 1005.85 1005.71 1005.69 1005.77 1005.91 1006.10 1006.29 1006.46 1006.58 1006.65 1006.64 1006.57 1006.44 1006.28 1006.08 1005.88 1005.67 1005.46 1005.26 1005.06 1004.87 1004.68 1004.49 1004.31 1004.15 1004.01 1003.88 1003.78 1003.68 1003.59 1003.49 1003.37 1003.21 1003.01
1012.33 1011.40 1010.47 1009.56 1008.70 1007.92 1007.24 1006.66 1006.20 1005.85 1005.62 1005.49 1005.46 1005.50 1005.59 1005.71 1005.84 1005.96 1006.06 1006.12 1006.14 1006.12 1006.07 1005.99 1005.88 1005.76 1005.61 1005.45 1005.28 1005.09 1004.89 1004.68 1004.48 1004.29 1004.13 1003.99 1003.88 1003.79 1003.71 1003.63 1003.52 1003.39 1003.20 1002.97
1012.10 1011.09 1010.07 1009.09 1008.19 1007.38 1006.70 1006.15 1005.73 1005.43 1005.25 1005.16 1005.14 1005.18 1005.26 1005.35 1005.45 1005.54 1005.62 1005.68 1005.73 1005.75 1005.76 1005.74 1005.70 1005.63 1005.54 1005.41 1005.26 1005.07 1004.87 1004.65 1004.44 1004.25 1004.08 1003.94 1003.83 1003.74 1003.65 1003.56 1003.43 1003.26 1003.04 1002.76
1011.50 1010.43 1009.35 1008.32 1007.38 1006.57 1005.90 1005.39 1005.03 1004.80 1004.69 1004.67 1004.71 1004.79 1004.89 1005.00 1005.11 1005.21 1005.30 1005.37 1005.44 1005.51 1005.55 1005.59 1005.59 1005.56 1005.50 1005.40 1005.25 1005.07 1004.87 1004.65 1004.44 1004.24 1004.07 1003.93 1003.81 1003.71 1003.61 1003.48 1003.32 1003.10 1002.83 1002.49
Thickness
5772 5754 5746 5756 5762 5762 5762 5758 5756 5769 5787 5780 5772 5772 5781 5788 5790 5788 5786 5785 5784 5783 5785 5786 5786 5786 5783 5780 5776 5772 5769 5767 5766 5763 5759 5756 5754 5755 5754 5754 5752 5751 5749 5747
5749 5745 5764 5770 5769 5766 5761 5752 5753 5766 5782 5776 5766 5768 5779 5784 5784 5787 5785 5783 5782 5780 5779 5780 5780 5780 5778 5775 5773 5769 5767 5764 5763 5762 5759 5757 5754 5752 5752 5751 5750 5748 5747 5745
5740 5756 5772 5767 5761 5757 5757 5751 5754 5757 5768 5771 5763 5752 5764 5775 5782 5785 5784 5783 5782 5779 5775 5775 5775 5774 5773 5770 5769 5768 5765 5762 5760 5759 5757 5754 5751 5748 5747 5746 5745 5745 5744 5743
5745 5763 5766 5760 5758 5758 5747 5767 5767 5762 5749 5739 5751 5724 5746 5758 5765 5772 5774 5774 5775 5776 5775 5773 5772 5770 5768 5767 5766 5764 5762 5760 5758 5756 5753 5750 5746 5743 5743 5743 5743 5742 5742 5740
5744 5760 5758 5754 5762 5766 5759 5772 5768 5762 5748 5735 5739 5723 5731 5749 5749 5758 5765 5770 5772 5774 5773 5771 5770 5768 5766 5765 5762 5760 5758 5755 5754 5752 5750 5747 5744 5743 5742 5741 5740 5738 5738 5737
5752 5767 5766 5765 5774 5775 5771 5763 5755 5744 5729 5713 5729 5720 5719 5735 5745 5754 5761 5766 5768 5770 5769 5768 5766 5764 5762 5760 5758 5755 5752 5750 5749 5748 5746 5744 5742 5740 5737 5735 5734 5733 5733 5733
5738 5753 5766 5772 5760 5763 5757 5729 5707 5703 5696 5703 5729 5721 5720 5744 5754 5756 5757 5761 5765 5764 5763 5760 5758 5756 5755 5753 5751 5749 5747 5744 5744 5743 5741 5740 5739 5737 5734 5732 5730 5729 5727 5727
5714 5721 5751 5762 5755 5746 5743 5729 5700 5688 5688 5700 5719 5712 5726 5750 5757 5759 5759 5758 5758 5757 5756 5755 5754 5753 5751 5748 5746 5744 5742 5740 5740 5739 5737 5736 5735 5733 5730 5728 5726 5725 5724 5724
5711 5717 5751 5762 5766 5755 5737 5726 5727 5705 5701 5694 5699 5713 5730 5745 5747 5749 5751 5751 5750 5751 5751 5750 5749 5748 5746 5745 5742 5741 5738 5736 5735 5734 5732 5731 5730 5728 5726 5724 5722 5721 5720 5720
5723 5715 5735 5752 5757 5753 5746 5735 5713 5699 5685 5681 5693 5702 5708 5725 5732 5738 5740 5740 5742 5744 5743 5743 5743 5743 5741 5741 5739 5738 5735 5732 5731 5729 5727 5726 5724 5724 5722 5721 5718 5717 5716 5716
5723 5708 5717 5730 5727 5725 5730 5725 5714 5700 5694 5680 5676 5690 5725 5726 5731 5732 5734 5736 5736 5737 5737 5737 5736 5736 5736 5734 5732 5730 5729 5727 5725 5724 5722 5720 5719 5718 5717 5715 5714 5713 5712 5710
5716 5700 5694 5711 5730 5738 5731 5721 5708 5691 5689 5687 5679 5688 5727 5727 5730 5731 5731 5733 5732 5732 5731 5731 5730 5728 5726 5725 5724 5723 5723 5721 5720 5719 5717 5714 5713 5712 5710 5709 5708 5707 5705 5704
5710 5692 5679 5688 5701 5716 5716 5717 5711 5699 5687 5679 5674 5686 5719 5720 5722 5725 5725 5725 5725 5724 5723 5722 5721 5720 5720 5719 5718 5716 5715 5715 5714 5712 5710 5708 5707 5705 5704 5703 5702 5701 5699 5698
5711 5685 5677 5673 5681 5696 5700 5706 5709 5695 5676 5677 5683 5690 5702 5706 5709 5713 5715 5716 5718 5717 5716 5714 5712 5712 5712 5712 5712 5710 5708 5709 5708 5706 5704 5702 5701 5699 5698 5697 5696 5695 5693 5692
5697 5680 5685 5689 5698 5700 5698 5700 5702 5696 5691 5684 5688 5691 5696 5700 5703 5706 5708 5708 5708 5707 5706 5706 5705 5705 5705 5704 5703 5702 5702 5702 5702 5700 5697 5696 5695 5694 5692 5690 5689 5688 5686 5685
5684 5676 5679 5680 5691 5691 5689 5693 5696 5695 5696 5692 5690 5688 5699 5699 5700 5698 5698 5698 5697 5697 5698 5698 5697 5698 5698 5698 5698 5698 5697 5696 5696 5694 5692 5690 5689 5687 5685 5683 5682 5680 5679 5679
5671 5668 5662 5660 5677 5678 5669 5680 5685 5686 5690 5690 5682 5686 5693 5690 5692 5690 5691 5691 5690 5689 5689 5688 5689 5690 5691 5692 5693 5692 5692 5691 5689 5687 5685 5684 5682 5680 5678 5677 5676 5673 5672 5671
5665 5658 5649 5649 5657 5648 5665 5683 5686 5681 5682 5686 5686 5686 5688 5687 5686 5685 5685 5684 5683 5683 5682 5681 5682 5683 5684 5685 5686 5686 5685 5683 5681 5680 5678 5677 5675 5673 5672 5670 5669 5667 5666 5665
5667 5655 5643 5637 5638 5646 5662 5674 5675 5670 5667 5677 5678 5679 5680 5680 5677 5674 5677 5678 5677 5677 5677 5676 5677 5676 5677 5677 5678 5677 5675 5674 5673 5673 5671 5671 5670 5667 5665 5663 5662 5662 5660 5659
5658 5652 5639 5634 5632 5632 5649 5668 5676 5668 5653 5668 5671 5670 5670 5670 5658 5659 5668 5670 5671 5671 5670 5670 5671 5671 5670 5670 5670 5669 5667 5666 5665 5666 5666 5665 5664 5661 5659 5658 5656 5656 5654 5653
5638 5636 5631 5627 5625 5633 5650 5663 5668 5646 5644 5658 5661 5661 5662 5658 5657 5659 5661 5662 5663 5663 5663 5664 5664 5663 5662 5663 5663 5661 5660 5658 5659 5659 5659 5658 5656 5655 5653 5651 5650 5650 5649 5647
5625 5622 5621 5619 5617 5623 5647 5651 5644 5641 5649 5652 5653 5654 5654 5654 5654 5654 5654 5653 5654 5655 5655 5655 5654 5654 5654 5655 5654 5653 5651 5652 5653 5652 5651 5650 5649 5649 5648 5645 5643 5643 5641 5640
5622 5621 5618 5618 5619 5630 5638 5640 5641 5643 5642 5644 5645 5647 5648 5647 5645 5645 5645 5645 5646 5647 5647 5646 5646 5645 5645 5645 5645 5644 5644 5645 5645 5644 5642 5642 5642 5641 5640 5638 5636 5635 5634 5632
5620 5622 5616 5615 5620 5626 5632 5635 5637 5638 5637 5639 5640 5640 5641 5639 5638 5637 5636 5636 5636 5637 5638 5638 5637 5636 5636 5636 5636 5636 5637 5637 5636 5635 5634 5633 5633 5632 5631 5630 5629 5628 5627 5625
5613 5614 5609 5608 5614 5619 5624 5628 5630 5631 5633 5633 5634 5634 5633 5632 5631 5630 5629 5628 5628 5628 5629 5630 5629 5628 5627 5627 5628 5629 5629 5629 5627 5626 5625 5625 5624 5623 5622 5622 5622 5621 5621 5621
5608 5606 5602 5602 5610 5610 5613 5621 5625 5624 5624 5625 5625 5625 5626 5626 5624 5624 5622 5621 5621 5621 5621 5621 5620 5620 5620 5620 5620 5621 5621 5620 5618 5617 5616 5615 5614 5615 5614 5614 5614 5615 5615 5617